Weather History for Charles City, IA

Change the Weather History Date:

Saturday, April 19, 2014

  Actual Average Record
Temperature  
Mean Temperature 54 °F -  
Max Temperature 71 °F 62 °F 87 °F (1985)
Min Temperature 37 °F 40 °F 20 °F (1988)
Degree Days  
Heating Degree Days 11    
Growing Degree Days 4 (Base 50)    
Moisture  
Dew Point 37 °F    
Average Humidity 53    
Maximum Humidity 81    
Minimum Humidity 35    
Precipitation  
Precipitation 0.00 in - - ()
Sea Level Pressure  
Sea Level Pressure 30.14 in    
Wind  
Wind Speed 18 mph (SSE)    
Max Wind Speed 26 mph    
Max Gust Speed 36 mph    
Visibility 10 miles    
Events      
Averages and records for this station are not official NWS values.
T = Trace of Precipitation, MM = Missing Value Source: NWS Daily Summary

Daily Weather History Graph

Daily Weather History Graph

Search for Another Location

Airport:

Trip Planner

Search our weather history database for the weather conditions in past years. The results will help you decide how hot, cold, wet, or windy it might be!

Date:

Astronomy

Apr. 19, 2014 Rise Set
Actual Time 6:22 AM CDT 7:57 PM CDT
Civil Twilight 5:52 AM CDT 8:27 PM CDT
Nautical Twilight 5:16 AM CDT 9:04 PM CDT
Astronomical Twilight 4:37 AM CDT 9:43 PM CDT
Moon No Moon Rise 9:37 AM CDT (4/19)
Length of Visible Light 14h 35m
Length of Day
13h 35m
Waning Gibbous, 78% of the Moon is Illuminated
Apr 19
Waning Gibbous
Apr 22
Last Quarter
Apr 29
New
May 6
First Quarter
May 14
Full

Hourly Weather History & Observations

Time (CDT) Temp. Windchill Dew Point Humidity Pressure Visibility Wind Dir Wind Speed Gust Speed Precip Events Conditions
12:15 AM 46.4 °F 40.4 °F 30.2 °F 53% 30.21 in 10.0 mi SE 13.8 mph 20.7 mph N/A   Clear
12:35 AM 46.4 °F 40.4 °F 30.2 °F 53% 30.21 in 10.0 mi SE 13.8 mph - N/A   Clear
12:55 AM 46.4 °F 39.8 °F 32.0 °F 57% 30.21 in 10.0 mi SE 16.1 mph - N/A   Clear
1:15 AM 46.4 °F 39.8 °F 32.0 °F 57% 30.21 in 10.0 mi SE 16.1 mph - N/A   Clear
1:35 AM 44.6 °F 39.2 °F 32.0 °F 61% 30.21 in 10.0 mi SE 10.4 mph - N/A   Clear
1:55 AM 44.6 °F 37.8 °F 32.0 °F 61% 30.21 in 10.0 mi SE 15.0 mph - N/A   Clear
2:15 AM 44.6 °F 37.4 °F 32.0 °F 61% 30.21 in 10.0 mi SE 16.1 mph - N/A   Clear
2:35 AM 44.6 °F 37.4 °F 32.0 °F 61% 30.22 in 10.0 mi SE 16.1 mph 23.0 mph N/A   Clear
2:55 AM 44.6 °F 37.4 °F 32.0 °F 61% 30.22 in 10.0 mi SE 16.1 mph 24.2 mph N/A   Clear
3:15 AM 42.8 °F 35.4 °F 33.8 °F 70% 30.21 in 10.0 mi SE 15.0 mph 21.9 mph N/A   Clear
3:35 AM 42.8 °F 34.5 °F 33.8 °F 70% 30.21 in 10.0 mi SE 18.4 mph 25.3 mph N/A   Clear
3:55 AM 42.8 °F 34.0 °F 35.6 °F 76% 30.21 in 10.0 mi SE 20.7 mph 26.5 mph N/A   Clear
4:15 AM 41.0 °F 31.1 °F 35.6 °F 81% 30.21 in 9.0 mi SE 23.0 mph - N/A   Clear
4:35 AM 41.0 °F 31.4 °F 33.8 °F 76% 30.21 in 10.0 mi SE 21.9 mph 27.6 mph N/A   Clear
4:55 AM 41.0 °F 31.6 °F 33.8 °F 76% 30.21 in 10.0 mi ESE 20.7 mph - N/A   Clear
5:15 AM 39.2 °F 29.6 °F 32.0 °F 75% 30.21 in 10.0 mi SE 19.6 mph 27.6 mph N/A   Clear
5:35 AM 39.2 °F 29.8 °F 32.0 °F 75% 30.22 in 10.0 mi ESE 18.4 mph - N/A   Clear
5:55 AM 39.2 °F 30.2 °F 32.0 °F 75% 30.23 in 10.0 mi ESE 17.3 mph 23.0 mph N/A   Clear
6:15 AM 37.4 °F 27.8 °F 32.0 °F 81% 30.24 in 10.0 mi ESE 17.3 mph 26.5 mph N/A   Clear
6:35 AM 37.4 °F 28.2 °F 30.2 °F 75% 30.24 in 10.0 mi ESE 16.1 mph 23.0 mph N/A   Clear
6:55 AM 37.4 °F 27.2 °F 30.2 °F 75% 30.24 in 10.0 mi SE 19.6 mph - N/A   Clear
7:15 AM 37.4 °F 27.5 °F 30.2 °F 75% 30.25 in 10.0 mi SE 18.4 mph - N/A   Clear
7:35 AM 37.4 °F 26.9 °F 28.4 °F 70% 30.24 in 10.0 mi SE 20.7 mph - N/A   Clear
7:55 AM 39.2 °F 28.7 °F 28.4 °F 65% 30.23 in 10.0 mi SE 23.0 mph 28.8 mph N/A   Clear
8:15 AM 41.0 °F 30.9 °F 28.4 °F 61% 30.23 in 10.0 mi SE 24.2 mph - N/A   Clear
8:35 AM 42.8 °F 33.3 °F 28.4 °F 57% 30.23 in 10.0 mi SE 24.2 mph 31.1 mph N/A   Clear
8:55 AM 42.8 °F 33.8 °F 28.4 °F 57% 30.23 in 10.0 mi SE 21.9 mph - N/A   Clear
9:15 AM 44.6 °F 35.5 °F 28.4 °F 53% 30.21 in 10.0 mi SSE 25.3 mph 31.1 mph N/A   Clear
9:35 AM 46.4 °F 38.5 °F 30.2 °F 53% 30.21 in 10.0 mi SE 21.9 mph - N/A   Clear
9:55 AM 48.2 °F - 30.2 °F 50% 30.21 in 10.0 mi SSE 21.9 mph 28.8 mph N/A   Clear
10:15 AM 50.0 °F - 32.0 °F 50% 30.20 in 10.0 mi SSE 24.2 mph 29.9 mph N/A   Clear
10:35 AM 50.0 °F - 32.0 °F 50% 30.19 in 10.0 mi SSE 21.9 mph 27.6 mph N/A   Clear
10:55 AM 51.8 °F - 33.8 °F 50% 30.19 in 10.0 mi SSE 23.0 mph 28.8 mph N/A   Clear
11:15 AM 53.6 °F - 33.8 °F 47% 30.18 in 10.0 mi SSE 19.6 mph 25.3 mph N/A   Clear
11:35 AM 55.4 °F - 35.6 °F 47% 30.17 in 10.0 mi SSE 20.7 mph 27.6 mph N/A   Clear
11:55 AM 59.0 °F - 37.4 °F 45% 30.15 in 10.0 mi South 21.9 mph - N/A   Clear
12:15 PM 59.0 °F - 37.4 °F 45% 30.14 in 10.0 mi SSE 23.0 mph 32.2 mph N/A   Clear
12:35 PM 59.0 °F - 37.4 °F 45% 30.13 in 10.0 mi South 21.9 mph 29.9 mph N/A   Clear
12:55 PM 60.8 °F - 39.2 °F 45% 30.12 in 10.0 mi South 21.9 mph 28.8 mph N/A   Clear
1:15 PM 62.6 °F - 39.2 °F 42% 30.10 in 10.0 mi South 26.5 mph - N/A   Clear
1:35 PM 64.4 °F - 39.2 °F 40% 30.10 in 10.0 mi SSE 20.7 mph 29.9 mph N/A   Clear
1:55 PM 66.2 °F - 41.0 °F 40% 30.10 in 10.0 mi South 20.7 mph 28.8 mph N/A   Clear
2:15 PM 68.0 °F - 42.8 °F 40% 30.09 in 10.0 mi South 20.7 mph 29.9 mph N/A   Clear
2:35 PM 69.8 °F - 42.8 °F 38% 30.09 in 10.0 mi South 21.9 mph 33.4 mph N/A   Clear
2:55 PM 69.8 °F - 42.8 °F 38% 30.08 in 10.0 mi South 20.7 mph 33.4 mph N/A   Clear
3:15 PM 69.8 °F - 42.8 °F 38% 30.07 in 10.0 mi South 25.3 mph 33.4 mph N/A   Clear
3:35 PM 69.8 °F - 42.8 °F 38% 30.06 in 10.0 mi South 25.3 mph 35.7 mph N/A   Clear
3:55 PM 71.6 °F - 44.6 °F 38% 30.06 in 10.0 mi SSE 24.2 mph 33.4 mph N/A   Partly Cloudy
4:15 PM 71.6 °F - 42.8 °F 35% 30.07 in 10.0 mi SSW 20.7 mph 32.2 mph N/A   Partly Cloudy
4:35 PM 69.8 °F - 42.8 °F 38% 30.06 in 10.0 mi South 25.3 mph 31.1 mph N/A   Scattered Clouds
4:55 PM 69.8 °F - 42.8 °F 38% 30.06 in 10.0 mi South 20.7 mph - N/A   Mostly Cloudy
5:15 PM 69.8 °F - 44.6 °F 40% 30.05 in 10.0 mi South 16.1 mph 25.3 mph N/A   Overcast
5:35 PM 69.8 °F - 44.6 °F 40% 30.05 in 10.0 mi South 20.7 mph - N/A   Mostly Cloudy
5:55 PM 69.8 °F - 44.6 °F 40% 30.05 in 10.0 mi South 18.4 mph - N/A   Mostly Cloudy
6:15 PM 71.6 °F - 44.6 °F 38% 30.05 in 10.0 mi South 16.1 mph - N/A   Scattered Clouds
6:35 PM 71.6 °F - 42.8 °F 35% 30.04 in 10.0 mi South 20.7 mph - N/A   Mostly Cloudy
6:55 PM 69.8 °F - 42.8 °F 38% 30.05 in 10.0 mi South 15.0 mph 24.2 mph N/A   Overcast
7:15 PM 68.0 °F - 44.6 °F 43% 30.04 in 9.0 mi South 13.8 mph - N/A   Mostly Cloudy
7:35 PM 68.0 °F - 44.6 °F 43% 30.05 in 8.0 mi South 12.7 mph - N/A   Mostly Cloudy
7:55 PM 66.2 °F - 44.6 °F 46% 30.05 in 10.0 mi South 13.8 mph - N/A   Overcast
8:15 PM 66.2 °F - 44.6 °F 46% 30.06 in 10.0 mi South 12.7 mph - N/A   Overcast
8:35 PM 66.2 °F - 44.6 °F 46% 30.06 in 10.0 mi South 11.5 mph - N/A   Overcast
8:55 PM 64.4 °F - 44.6 °F 49% 30.06 in 10.0 mi South 12.7 mph - N/A   Overcast
9:15 PM 64.4 °F - 44.6 °F 49% 30.07 in 10.0 mi SSE 11.5 mph - N/A   Overcast
9:35 PM 64.4 °F - 44.6 °F 49% 30.07 in 10.0 mi SSE 10.4 mph - N/A   Overcast
9:55 PM 64.4 °F - 44.6 °F 49% 30.07 in 10.0 mi SSE 12.7 mph - N/A   Overcast
10:15 PM 64.4 °F - 44.6 °F 49% 30.06 in 10.0 mi SSE 9.2 mph - N/A   Overcast
10:35 PM 62.6 °F - 44.6 °F 52% 30.06 in 10.0 mi SE 10.4 mph - N/A   Overcast
10:55 PM 62.6 °F - 44.6 °F 52% 30.07 in 10.0 mi SSE 10.4 mph - N/A   Overcast
11:15 PM 60.8 °F - 44.6 °F 55% 30.07 in 10.0 mi SSE 10.4 mph - N/A   Overcast
11:35 PM 62.6 °F - 44.6 °F 52% 30.07 in 10.0 mi SSE 10.4 mph - N/A   Overcast
11:55 PM 60.8 °F - 44.6 °F 55% 30.07 in 10.0 mi SSE 11.5 mph - N/A   Overcast